Weather History for Guymon, OK

Change the Weather History Date:

Friday, February 22, 2013

  Actual Average Record
Temperature  
Mean Temperature 19 °F 40 °F  
Max Temperature 36 °F 55 °F 76 °F (2012)
Min Temperature 2 °F 25 °F 2 °F (2013)
Degree Days  
Heating Degree Days 46 25  
Month to date heating degree days 583 593  
Since 1 July heating degree days 3041 3321  
Cooling Degree Days 0 0  
Month to date cooling degree days 0 0  
Year to date cooling degree days 0 0  
Moisture  
Dew Point 12 °F    
Average Humidity 74    
Maximum Humidity 92    
Minimum Humidity 56    
Precipitation  
Precipitation 0.00 in 0.02 in 0.05 in (2000)
Month to date precipitation 0.91 0.36  
Year to date precipitation 1.22 0.76  
Snow  
Snow 0.00 in - - ()
Month to date snowfall 11.0  
Since 1 July snowfall 14.2  
Snow Depth 7.00 in    
Sea Level Pressure  
Sea Level Pressure 30.09 in    
Wind  
Wind Speed 6 mph (SW)    
Max Wind Speed 9 mph    
Max Gust Speed 12 mph    
Visibility 10 miles    
Events Snow    
T = Trace of Precipitation, MM = Missing Value Source: NWS Daily Summary

Daily Weather History Graph

Daily Weather History Graph

Search for Another Location

Airport:

Trip Planner

Search our weather history database for the weather conditions in past years. The results will help you decide how hot, cold, wet, or windy it might be!

Date:

Astronomy

Feb. 22, 2013 Rise Set
Actual Time 7:25 AM CST 6:33 PM CST
Civil Twilight 6:59 AM CST 7:00 PM CST
Nautical Twilight 6:29 AM CST 7:30 PM CST
Astronomical Twilight 5:59 AM CST 8:00 PM CST
Moon 3:50 PM CST (2/22) 5:08 AM CST (2/22)
Length of Visible Light 12h 00m
Length of Day
11h 08m
Waxing Gibbous, 90% of the Moon is Illuminated
Feb 22
Waxing Gibbous
Feb 25
Full
Mar 4
Last Quarter
Mar 11
New
Mar 19
First Quarter

Hourly Weather History & Observations

Time (CST) Temp. Windchill Dew Point Humidity Pressure Visibility Wind Dir Wind Speed Gust Speed Precip Events Conditions
12:53 AM 10.0 °F -2.9 °F 6.1 °F 84% 30.06 in 10.0 mi WNW 9.2 mph - N/A   Clear
1:53 AM 9.0 °F -3.2 °F 5.0 °F 84% 30.05 in 10.0 mi WSW 8.1 mph - N/A   Clear
2:53 AM 10.9 °F 1.4 °F 7.0 °F 84% 30.04 in 10.0 mi WSW 5.8 mph - N/A   Clear
3:53 AM 8.1 °F -3.2 °F 5.0 °F 87% 30.04 in 10.0 mi SW 6.9 mph - N/A   Clear
4:53 AM 7.0 °F -1.7 °F 3.0 °F 84% 30.06 in 10.0 mi SW 4.6 mph - N/A   Clear
5:53 AM 6.1 °F -5.6 °F 3.0 °F 87% 30.08 in 10.0 mi WSW 6.9 mph - N/A   Clear
6:53 AM 6.1 °F -6.8 °F 1.0 °F 80% 30.10 in 10.0 mi West 8.1 mph - N/A   Clear
7:53 AM 6.1 °F -7.8 °F 1.9 °F 83% 30.12 in 10.0 mi West 9.2 mph - N/A   Clear
8:53 AM 12.9 °F 0.7 °F 8.1 °F 81% 30.13 in 9.0 mi West 9.2 mph - 0.00 in Snow Light Snow
9:53 AM 14.0 °F 5.1 °F 8.1 °F 77% 30.14 in 10.0 mi WSW 5.8 mph - 0.00 in   Overcast
10:53 AM 21.0 °F 13.4 °F 15.1 °F 78% 30.12 in 10.0 mi SSW 5.8 mph - N/A   Overcast
1:53 PM 30.9 °F 27.5 °F 19.0 °F 61% 30.08 in 10.0 mi West 3.5 mph - N/A   Overcast
2:53 PM 33.1 °F 30.0 °F 21.0 °F 61% 30.05 in 10.0 mi West 3.5 mph - N/A   Overcast
3:53 PM 35.1 °F - 21.0 °F 57% 30.04 in 10.0 mi Calm Calm - N/A   Mostly Cloudy
4:53 PM 30.9 °F 24.3 °F 21.9 °F 69% 30.06 in 10.0 mi SW 6.9 mph - N/A   Partly Cloudy
5:53 PM 28.9 °F 22.8 °F 21.0 °F 72% 30.08 in 10.0 mi SSW 5.8 mph - N/A   Partly Cloudy
6:53 PM 26.1 °F 19.4 °F 21.0 °F 81% 30.10 in 10.0 mi SSW 5.8 mph - N/A   Scattered Clouds
7:53 PM 23.0 °F 15.8 °F 18.0 °F 81% 30.11 in 10.0 mi SSW 5.8 mph - N/A   Clear
8:53 PM 19.9 °F 13.4 °F 16.0 °F 85% 30.12 in 10.0 mi SSW 4.6 mph - N/A   Clear
9:53 PM 18.0 °F 9.8 °F 15.1 °F 88% 30.11 in 9.0 mi SSW 5.8 mph - N/A   Clear
10:53 PM 19.0 °F 9.0 °F 15.1 °F 85% 30.11 in 10.0 mi SSW 8.1 mph - N/A   Clear
11:53 PM 21.9 °F 13.4 °F 16.0 °F 78% 30.08 in 10.0 mi SW 6.9 mph - N/A   Mostly Cloudy